Weather History for KEZM - March, 2013

Change the Weather History Date:

Friday, March 1, 2013

  Actual Average Record
Temperature  
Mean Temperature 45 °F -  
Max Temperature 53 °F 66 °F 70 °F (2014)
Min Temperature 37 °F 41 °F 37 °F (2013)
Degree Days  
Heating Degree Days 20    
Moisture  
Dew Point 30 °F    
Average Humidity 56    
Maximum Humidity 77    
Minimum Humidity 39    
Precipitation  
Precipitation 0.00 in - - ()
Sea Level Pressure  
Sea Level Pressure 30.01 in    
Wind  
Wind Speed 5 mph (WNW)    
Max Wind Speed 13 mph    
Max Gust Speed 18 mph    
Visibility 10 miles    
Events      
Averages and records for this station are not official NWS values.
T = Trace of Precipitation, MM = Missing Value Source: NWS Daily Summary

Daily Weather History Graph

Daily Weather History Graph

Search for Another Location

Airport or City:

Trip Planner

Search our weather history database for the weather conditions in past years. The results will help you decide how hot, cold, wet, or windy it might be!

Date:

Astronomy

Mar. 01, 2013 Rise Set
Actual Time 6:59 AM EST 6:30 PM EST
Civil Twilight 6:35 AM EST 6:54 PM EST
Nautical Twilight 6:06 AM EST 7:23 PM EST
Astronomical Twilight 5:38 AM EST 7:51 PM EST
Moon 10:43 PM EST (3/1) 9:02 AM EST (3/1)
Length of Visible Light 12h 19m
Length of Day
11h 30m
Waning Gibbous, 83% of the Moon is Illuminated
Mar 1
Waning Gibbous
Mar 4
Last Quarter
Mar 11
New
Mar 19
First Quarter
Mar 27
Full

Hourly Weather History & Observations

Time (EST) Temp. Windchill Dew Point Humidity Pressure Visibility Wind Dir Wind Speed Gust Speed Precip Events Conditions
12:15 AM 44.6 °F 42.2 °F 27.5 °F 51% 30.00 in 10.0 mi NW 4.6 mph - N/A   Clear
12:35 AM 44.2 °F - 28.0 °F 53% 30.00 in 10.0 mi Calm Calm - N/A   Clear
12:55 AM 43.7 °F 42.1 °F 28.6 °F 55% 30.01 in 10.0 mi NW 3.5 mph - N/A   Clear
1:15 AM 43.3 °F 41.7 °F 28.8 °F 56% 30.02 in 10.0 mi NW 3.5 mph - N/A   Clear
1:35 AM 43.3 °F 41.7 °F 28.8 °F 56% 30.02 in 10.0 mi NW 3.5 mph - N/A   Clear
1:55 AM 42.8 °F 41.1 °F 29.3 °F 59% 30.02 in 10.0 mi WNW 3.5 mph - N/A   Clear
2:15 AM 42.3 °F 40.5 °F 29.7 °F 61% 30.02 in 10.0 mi WNW 3.5 mph - N/A   Clear
2:35 AM 42.1 °F 39.2 °F 30.0 °F 62% 30.01 in 10.0 mi WNW 4.6 mph - N/A   Clear
2:55 AM 41.7 °F 38.8 °F 30.2 °F 64% 30.01 in 10.0 mi WNW 4.6 mph - N/A   Clear
3:35 AM 41.4 °F 39.4 °F 30.0 °F 64% 30.02 in 10.0 mi WNW 3.5 mph - N/A   Clear
3:55 AM 41.0 °F 38.0 °F 30.6 °F 66% 30.02 in 10.0 mi WNW 4.6 mph - N/A   Clear
4:35 AM 40.5 °F 38.4 °F 30.6 °F 68% 30.01 in 10.0 mi WNW 3.5 mph - N/A   Clear
4:55 AM 40.1 °F 36.9 °F 30.4 °F 68% 30.02 in 10.0 mi WNW 4.6 mph - N/A   Clear
5:15 AM 39.6 °F 36.3 °F 30.2 °F 69% 30.01 in 10.0 mi WNW 4.6 mph - N/A   Clear
5:35 AM 39.2 °F 37.0 °F 30.6 °F 71% 30.02 in 10.0 mi WNW 3.5 mph - N/A   Clear
5:55 AM 38.8 °F 35.4 °F 30.2 °F 71% 30.02 in 10.0 mi WNW 4.6 mph - N/A   Clear
6:15 AM 38.3 °F 35.9 °F 30.6 °F 74% 30.02 in 10.0 mi NW 3.5 mph - N/A   Clear
6:35 AM 37.6 °F 34.0 °F 30.6 °F 76% 30.02 in 10.0 mi WNW 4.6 mph - N/A   Clear
7:15 AM 37.6 °F 35.1 °F 31.1 °F 77% 30.03 in 10.0 mi WNW 3.5 mph - N/A   Clear
7:35 AM 38.1 °F 35.7 °F 30.9 °F 75% 30.03 in 10.0 mi WNW 3.5 mph - N/A   Clear
7:55 AM 38.7 °F 35.2 °F 30.7 °F 73% 30.04 in 10.0 mi WNW 4.6 mph - N/A   Clear
8:15 AM 38.8 °F 35.4 °F 30.7 °F 73% 30.05 in 10.0 mi NW 4.6 mph - N/A   Clear
8:35 AM 39.9 °F 36.7 °F 30.6 °F 69% 30.05 in 10.0 mi WNW 4.6 mph - N/A   Clear
8:55 AM 41.0 °F 36.4 °F 30.0 °F 65% 30.06 in 10.0 mi WNW 6.9 mph - N/A   Clear
9:15 AM 42.3 °F 36.8 °F 29.1 °F 60% 30.06 in 10.0 mi NW 9.2 mph 16.1 mph N/A   Clear
9:35 AM 42.4 °F 36.5 °F 27.9 °F 56% 30.06 in 10.0 mi WNW 10.4 mph 17.3 mph N/A   Clear
10:15 AM 44.2 °F 39.2 °F 28.0 °F 53% 30.05 in 10.0 mi WNW 9.2 mph - N/A   Clear
10:35 AM 45.5 °F 41.3 °F 28.2 °F 51% 30.05 in 10.0 mi NNW 8.1 mph - N/A   Scattered Clouds
10:55 AM 47.1 °F - 28.2 °F 48% 30.05 in 10.0 mi NW 11.5 mph 17.3 mph N/A   Mostly Cloudy
11:15 AM 48.0 °F - 27.1 °F 44% 30.04 in 10.0 mi West 12.7 mph 17.3 mph N/A   Scattered Clouds
11:35 AM 48.9 °F - 27.5 °F 43% 30.04 in 10.0 mi West 12.7 mph 18.4 mph N/A   Clear
12:15 PM 50.5 °F - 27.3 °F 41% 30.02 in 10.0 mi NW 12.7 mph 17.3 mph N/A   Clear
12:35 PM 49.6 °F - 27.3 °F 42% 30.02 in 10.0 mi West 11.5 mph 18.4 mph N/A   Clear
12:55 PM 50.7 °F - 27.5 °F 41% 30.01 in 10.0 mi NNW 10.4 mph - N/A   Clear
1:15 PM 49.8 °F - 27.3 °F 42% 30.00 in 10.0 mi NW 9.2 mph 18.4 mph N/A   Clear
1:35 PM 50.7 °F - 27.9 °F 41% 29.99 in 10.0 mi WNW 11.5 mph - N/A   Clear
2:15 PM 52.3 °F - 28.4 °F 40% 29.97 in 10.0 mi WNW 11.5 mph 17.3 mph N/A   Clear
2:35 PM 52.3 °F - 28.4 °F 40% 29.96 in 10.0 mi West 6.9 mph 18.4 mph N/A   Clear
2:55 PM 53.1 °F - 28.9 °F 40% 29.96 in 10.0 mi WNW 9.2 mph 17.3 mph N/A   Clear
3:15 PM 52.9 °F - 28.6 °F 39% 29.96 in 10.0 mi West 10.4 mph 16.1 mph N/A   Clear
3:35 PM 52.0 °F - 28.6 °F 41% 29.97 in 10.0 mi West 10.4 mph - N/A   Clear
3:55 PM 51.8 °F - 28.4 °F 41% 29.97 in 10.0 mi West 11.5 mph - N/A   Clear
4:15 PM 51.6 °F - 29.3 °F 42% 29.97 in 10.0 mi WNW 5.8 mph - N/A   Clear
4:35 PM 51.1 °F - 29.7 °F 44% 29.96 in 10.0 mi WSW 5.8 mph - N/A   Clear
5:15 PM 51.1 °F - 30.9 °F 46% 29.97 in 10.0 mi WSW 5.8 mph - N/A   Clear
5:35 PM 50.9 °F - 31.1 °F 47% 29.96 in 10.0 mi SW 4.6 mph - N/A   Scattered Clouds
5:55 PM 50.4 °F - 32.0 °F 49% 29.97 in 10.0 mi SW 3.5 mph - N/A   Scattered Clouds
6:15 PM 50.4 °F - 32.0 °F 49% 29.97 in 10.0 mi WSW 3.5 mph - N/A   Scattered Clouds
6:35 PM 50.2 °F - 32.0 °F 50% 29.97 in 10.0 mi WSW 3.5 mph - N/A   Mostly Cloudy
6:55 PM 50.0 °F - 32.5 °F 51% 29.98 in 10.0 mi West 3.5 mph - N/A   Mostly Cloudy
7:15 PM 49.3 °F - 32.2 °F 52% 29.98 in 10.0 mi West 3.5 mph - N/A   Mostly Cloudy
7:35 PM 47.8 °F - 32.7 °F 56% 29.98 in 10.0 mi Calm Calm - N/A   Mostly Cloudy
7:55 PM 47.7 °F - 32.9 °F 57% 29.99 in 10.0 mi Calm Calm - N/A   Mostly Cloudy
8:15 PM 47.7 °F - 33.1 °F 57% 29.99 in 10.0 mi NW 3.5 mph - N/A   Overcast
8:35 PM 47.5 °F - 34.0 °F 59% 30.00 in 10.0 mi NNW 5.8 mph - N/A   Overcast
8:55 PM 47.5 °F - 31.1 °F 53% 30.02 in 10.0 mi North 4.6 mph - N/A   Overcast
9:15 PM 46.4 °F 44.3 °F 31.8 °F 57% 30.02 in 10.0 mi North 4.6 mph - N/A   Overcast
9:35 PM 45.5 °F 43.2 °F 30.7 °F 56% 30.03 in 10.0 mi North 4.6 mph - N/A   Overcast
9:55 PM 45.0 °F 43.5 °F 30.2 °F 56% 30.04 in 10.0 mi NNW 3.5 mph - N/A   Overcast
10:15 PM 44.6 °F - 30.7 °F 58% 30.04 in 10.0 mi Calm Calm - N/A   Overcast
10:55 PM 44.2 °F - 31.5 °F 61% 30.04 in 10.0 mi Calm Calm - N/A   Overcast
11:15 PM 44.1 °F 42.5 °F 30.7 °F 59% 30.03 in 10.0 mi NW 3.5 mph - N/A   Overcast
11:35 PM 43.7 °F - 30.0 °F 59% 30.03 in 10.0 mi Calm Calm - N/A   Overcast
11:55 PM 42.1 °F - 30.2 °F 63% 30.03 in 10.0 mi Calm Calm - N/A   Scattered Clouds